Weather History for Clearfield, PA

Change the Weather History Date:

Wednesday, March 5, 2014

  Actual Average (KDUJ) Record (KDUJ)
Temperature  
Mean Temperature 22 °F 31 °F  
Max Temperature 28 °F 40 °F 71 °F (1992)
Min Temperature 14 °F 22 °F 4 °F (2002)
Degree Days  
Heating Degree Days 44 34  
Month to date heating degree days 173  
Since 1 July heating degree days 5196  
Cooling Degree Days 0 0  
Month to date cooling degree days 0  
Year to date cooling degree days 0  
Moisture  
Dew Point 5 °F    
Average Humidity 47    
Maximum Humidity 66    
Minimum Humidity 26    
Precipitation  
Precipitation 0.00 in 0.10 in 1.86 in (1965)
Month to date precipitation 0.49  
Sea Level Pressure  
Sea Level Pressure 30.30 in    
Wind  
Wind Speed 4 mph (North)    
Max Wind Speed 15 mph    
Max Gust Speed 20 mph    
Visibility 10 miles    
Events      
T = Trace of Precipitation, MM = Missing Value Source: NWS Daily Summary

Daily Weather History Graph

Daily Weather History Graph

Search for Another Location

Airport:

Trip Planner

Search our weather history database for the weather conditions in past years. The results will help you decide how hot, cold, wet, or windy it might be!

Date:

Astronomy

Mar. 05, 2014 Rise Set
Actual Time 6:41 AM EST 6:09 PM EST
Civil Twilight 6:14 AM EST 6:36 PM EST
Nautical Twilight 5:42 AM EST 7:08 PM EST
Astronomical Twilight 5:10 AM EST 7:40 PM EST
Moon 9:03 AM EST (3/5) 11:18 PM EST (3/5)
Length of Visible Light 12h 22m
Length of Day
11h 27m
Waxing Crescent, 23% of the Moon is Illuminated
Mar 5
Waxing Crescent
Mar 8
First Quarter
Mar 16
Full
Mar 23
Last Quarter
Mar 30
New

Hourly Weather History & Observations

Time (EST) Temp. Windchill Dew Point Humidity Pressure Visibility Wind Dir Wind Speed Gust Speed Precip Events Conditions
12:54 AM 27.0 °F - 9.0 °F 47% 30.18 in 10.0 mi Calm Calm - N/A   Overcast
1:54 AM 25.0 °F 20.7 °F 10.9 °F 55% 30.18 in 10.0 mi WSW 3.5 mph - N/A   Mostly Cloudy
2:54 AM 24.1 °F 19.7 °F 6.1 °F 46% 30.17 in 10.0 mi SW 3.5 mph - N/A   Clear
3:54 AM 21.9 °F 17.2 °F 8.1 °F 55% 30.17 in 9.0 mi WSW 3.5 mph - N/A   Scattered Clouds
4:54 AM 21.0 °F - 6.1 °F 53% 30.18 in 10.0 mi Calm Calm - N/A   Overcast
5:54 AM 21.0 °F - 10.9 °F 65% 30.20 in 10.0 mi Calm Calm - N/A   Overcast
6:54 AM 21.9 °F - 12.0 °F 66% 30.21 in 10.0 mi Calm Calm - N/A   Overcast
7:54 AM 23.0 °F - 10.9 °F 60% 30.24 in 10.0 mi Calm Calm - N/A   Overcast
8:54 AM 25.0 °F 19.3 °F 3.0 °F 39% 30.26 in 10.0 mi NW 4.6 mph - N/A   Overcast
9:54 AM 26.1 °F 18.4 °F -5.1 °F 26% 30.26 in 10.0 mi NW 6.9 mph - N/A   Overcast
10:54 AM 28.0 °F - -0.9 °F 29% 30.27 in 10.0 mi Calm Calm - N/A   Overcast
11:54 AM 28.0 °F 18.6 °F -2.0 °F 27% 30.27 in 10.0 mi NNW 10.4 mph - N/A   Overcast
12:54 PM 28.0 °F 18.6 °F -2.9 °F 26% 30.27 in 10.0 mi NNW 10.4 mph - N/A   Overcast
1:54 PM 28.0 °F 19.3 °F 1.9 °F 33% 30.27 in 10.0 mi NNW 9.2 mph 17.3 mph N/A   Overcast
2:54 PM 28.9 °F 21.9 °F 3.0 °F 33% 30.28 in 10.0 mi NNE 6.9 mph - N/A   Overcast
3:54 PM 28.9 °F 17.7 °F 3.9 °F 35% 30.30 in 10.0 mi North 15.0 mph 19.6 mph N/A   Overcast
4:54 PM 28.0 °F 20.0 °F 9.0 °F 45% 30.31 in 10.0 mi North 8.1 mph - N/A   Overcast
5:54 PM 26.1 °F 15.6 °F 9.0 °F 49% 30.36 in 10.0 mi North 11.5 mph - N/A   Scattered Clouds
6:54 PM 23.0 °F 11.1 °F 7.0 °F 50% 30.39 in 10.0 mi NNE 12.7 mph - N/A   Clear
7:54 PM 19.9 °F 10.1 °F 7.0 °F 57% 30.42 in 10.0 mi NNE 8.1 mph - N/A   Clear
8:54 PM 19.0 °F 8.2 °F 7.0 °F 59% 30.44 in 10.0 mi NNE 9.2 mph - N/A   Clear
9:54 PM 17.1 °F 3.0 °F 5.0 °F 59% 30.47 in 10.0 mi NE 13.8 mph - N/A   Clear
10:54 PM 15.1 °F 3.3 °F 3.9 °F 61% 30.48 in 10.0 mi NE 9.2 mph - N/A   Clear
11:54 PM 14.0 °F 3.9 °F 3.0 °F 62% 30.50 in 10.0 mi NE 6.9 mph - N/A   Clear